ITY1347 LIMC-LIRF

Flight info

Callsign ITY1347
Flight time N/A
Altitude 39000
Route ROBAS DCT TINKU DCT XIBIL
Aircraft A339/H-SADE1E2E3GHIJ3J5M1P2RWXY/LB2D1

Departure

Time 2026-05-06 16:49
Airport Milan Malpensa International Airport (LIMC)

Arrival

Time N/A
Airport Rome–Fiumicino Leonardo da Vinci International Airport (LIRF)
Time Latitude Longitude Altitude Speed Heading
2026-05-06 16:08 45.62542 8.71609 737 ft 0 kts 166°
2026-05-06 16:34 45.62569 8.71600 735 ft 3 kts 166°
2026-05-06 16:34 45.62590 8.71594 734 ft 3 kts 154°
2026-05-06 16:34 45.62608 8.71579 734 ft 3 kts 116°
2026-05-06 16:34 45.62615 8.71553 734 ft 0 kts 81°
2026-05-06 16:35 45.62615 8.71549 734 ft 1 kts 76°
2026-05-06 16:35 45.62616 8.71552 734 ft 0 kts 77°
2026-05-06 16:38 45.62617 8.71558 734 ft 3 kts 77°
2026-05-06 16:38 45.62625 8.71609 736 ft 7 kts 78°
2026-05-06 16:38 45.62635 8.71686 739 ft 9 kts 79°
2026-05-06 16:39 45.62646 8.71782 739 ft 11 kts 83°
2026-05-06 16:39 45.62648 8.71808 739 ft 0 kts 86°
2026-05-06 16:39 45.62647 8.71809 739 ft 1 kts 89°
2026-05-06 16:39 45.62625 8.71828 738 ft 6 kts 149°
2026-05-06 16:40 45.62573 8.71851 737 ft 10 kts 167°
2026-05-06 16:40 45.62497 8.71875 736 ft 13 kts 167°
2026-05-06 16:40 45.62396 8.71900 734 ft 16 kts 171°
2026-05-06 16:40 45.62274 8.71929 733 ft 19 kts 170°
2026-05-06 16:41 45.62135 8.71970 728 ft 22 kts 168°
2026-05-06 16:41 45.62007 8.72008 727 ft 17 kts 168°
2026-05-06 16:41 45.61881 8.72045 725 ft 20 kts 168°
2026-05-06 16:41 45.61753 8.72082 723 ft 16 kts 168°
2026-05-06 16:42 45.61636 8.72114 718 ft 19 kts 169°
2026-05-06 16:42 45.61499 8.72150 717 ft 21 kts 169°
2026-05-06 16:42 45.61345 8.72191 713 ft 24 kts 169°
2026-05-06 16:42 45.61175 8.72238 698 ft 26 kts 168°
2026-05-06 16:43 45.60994 8.72291 695 ft 27 kts 168°
2026-05-06 16:43 45.60887 8.72321 696 ft 15 kts 168°
2026-05-06 16:43 45.60779 8.72352 699 ft 17 kts 168°
2026-05-06 16:43 45.60674 8.72421 696 ft 17 kts 134°
2026-05-06 16:44 45.60636 8.72581 701 ft 18 kts 100°
2026-05-06 16:44 45.60619 8.72762 704 ft 19 kts 97°
2026-05-06 16:44 45.60603 8.72954 702 ft 20 kts 97°
2026-05-06 16:44 45.60594 8.73156 697 ft 21 kts 81°
2026-05-06 16:45 45.60667 8.73294 700 ft 15 kts 25°
2026-05-06 16:45 45.60768 8.73350 698 ft 16 kts 21°
2026-05-06 16:45 45.60878 8.73404 701 ft 17 kts
2026-05-06 16:45 45.60997 8.73381 704 ft 18 kts 349°
2026-05-06 16:46 45.61123 8.73346 703 ft 19 kts 349°
2026-05-06 16:46 45.61252 8.73311 701 ft 19 kts 349°
2026-05-06 16:46 45.61384 8.73276 703 ft 20 kts 349°
2026-05-06 16:46 45.61518 8.73238 713 ft 19 kts 348°
2026-05-06 16:47 45.61597 8.73247 716 ft 9 kts 38°
2026-05-06 16:47 45.61625 8.73331 712 ft 11 kts 76°
2026-05-06 16:47 45.61623 8.73446 710 ft 13 kts 106°
2026-05-06 16:47 45.61588 8.73573 705 ft 15 kts 99°
2026-05-06 16:48 45.61620 8.73708 702 ft 15 kts 38°
2026-05-06 16:48 45.61716 8.73710 713 ft 15 kts 351°
2026-05-06 16:48 45.61868 8.73667 712 ft 49 kts 349°
2026-05-06 16:48 45.62507 8.73490 730 ft 135 kts 349°
2026-05-06 16:49 45.63631 8.73188 927 ft 182 kts 349°
2026-05-06 16:49 45.64956 8.72856 1443 ft 206 kts 350°
2026-05-06 16:49 45.66397 8.72557 1930 ft 202 kts 354°
2026-05-06 16:49 45.67773 8.72497 2419 ft 197 kts 360°
2026-05-06 16:50 45.69151 8.72535 2923 ft 198 kts
2026-05-06 16:50 45.70537 8.72576 3422 ft 200 kts
2026-05-06 16:50 45.71930 8.72685 3897 ft 202 kts 12°
2026-05-06 16:50 45.73137 8.73631 4415 ft 205 kts 45°
2026-05-06 16:51 45.73862 8.75370 4939 ft 207 kts 69°
2026-05-06 16:51 45.74293 8.77338 5435 ft 208 kts 75°
2026-05-06 16:51 45.74613 8.79365 5924 ft 210 kts 85°
2026-05-06 16:51 45.74404 8.81419 6428 ft 211 kts 112°
2026-05-06 16:52 45.73847 8.83373 6942 ft 213 kts 113°
2026-05-06 16:52 45.73162 8.85264 7438 ft 214 kts 123°
2026-05-06 16:52 45.72274 8.86980 7936 ft 216 kts 128°
2026-05-06 16:52 45.71366 8.88702 8437 ft 217 kts 127°
2026-05-06 16:53 45.70456 8.90481 8950 ft 224 kts 127°
2026-05-06 16:53 45.69538 8.92298 9452 ft 226 kts 126°
2026-05-06 16:53 45.68615 8.94134 9955 ft 228 kts 126°
2026-05-06 16:53 45.67686 8.95980 10456 ft 230 kts 126°
2026-05-06 16:54 45.66740 8.97858 10968 ft 239 kts 126°
2026-05-06 16:54 45.65742 8.99830 11495 ft 252 kts 126°
2026-05-06 16:54 45.64690 9.01902 11999 ft 263 kts 127°
2026-05-06 16:54 45.63476 9.03919 12508 ft 273 kts 133°
2026-05-06 16:55 45.62165 9.05960 13009 ft 283 kts 133°
2026-05-06 16:55 45.60825 9.08053 13528 ft 288 kts 133°
2026-05-06 16:55 45.59468 9.10183 14026 ft 290 kts 133°
2026-05-06 16:55 45.58106 9.12328 14528 ft 292 kts 133°
2026-05-06 16:56 45.56757 9.14452 15020 ft 295 kts 133°
2026-05-06 16:56 45.55352 9.16663 15529 ft 297 kts 133°
2026-05-06 16:56 45.53977 9.18823 16026 ft 299 kts 133°
2026-05-06 16:56 45.52573 9.21026 16527 ft 301 kts 133°
2026-05-06 16:57 45.51156 9.23248 17032 ft 304 kts 133°
2026-05-06 16:57 45.49727 9.25485 17531 ft 306 kts 133°
2026-05-06 16:57 45.48290 9.27736 18030 ft 309 kts 133°
2026-05-06 16:57 45.46836 9.30010 18531 ft 311 kts 133°
2026-05-06 16:58 45.45375 9.32292 19031 ft 313 kts 133°
2026-05-06 16:58 45.43901 9.34592 19539 ft 316 kts 133°
2026-05-06 16:58 45.42412 9.36915 20044 ft 320 kts 133°
2026-05-06 16:58 45.40898 9.39274 20523 ft 327 kts 133°
2026-05-06 16:59 45.39341 9.41697 20902 ft 336 kts 133°
2026-05-06 16:59 45.37736 9.44192 21286 ft 346 kts 133°
2026-05-06 16:59 45.36094 9.46743 21667 ft 354 kts 133°
2026-05-06 16:59 45.34410 9.49355 22046 ft 362 kts 133°
2026-05-06 17:00 45.32693 9.52018 22430 ft 369 kts 133°
2026-05-06 17:00 45.30939 9.54733 22815 ft 376 kts 133°
2026-05-06 17:00 45.29155 9.57494 23317 ft 381 kts 133°
2026-05-06 17:00 45.27353 9.60279 23819 ft 384 kts 133°
2026-05-06 17:01 45.25535 9.63087 24306 ft 388 kts 133°
2026-05-06 17:01 45.23705 9.65909 24822 ft 390 kts 133°
2026-05-06 17:01 45.21855 9.68752 25320 ft 392 kts 134°
2026-05-06 17:01 45.19834 9.71357 25832 ft 394 kts 142°
2026-05-06 17:02 45.17556 9.73516 26312 ft 396 kts 150°
2026-05-06 17:02 45.15058 9.75198 26746 ft 399 kts 159°
2026-05-06 17:02 45.12473 9.76653 27175 ft 402 kts 158°
2026-05-06 17:02 45.09866 9.78146 27604 ft 405 kts 158°
2026-05-06 17:03 45.07286 9.79640 28026 ft 408 kts 158°
2026-05-06 17:03 45.04651 9.81173 28452 ft 410 kts 158°
2026-05-06 17:03 45.02001 9.82715 28874 ft 413 kts 158°
2026-05-06 17:03 44.99339 9.84262 29299 ft 415 kts 158°
2026-05-06 17:04 44.96667 9.85813 29723 ft 416 kts 158°
2026-05-06 17:04 44.93979 9.87372 30150 ft 418 kts 158°
2026-05-06 17:04 44.91283 9.88933 30573 ft 420 kts 158°
2026-05-06 17:04 44.88569 9.90502 30999 ft 422 kts 158°
2026-05-06 17:05 44.85850 9.92073 31435 ft 423 kts 158°
2026-05-06 17:05 44.83118 9.93650 31861 ft 424 kts 158°
2026-05-06 17:05 44.80420 9.95205 32271 ft 425 kts 158°
2026-05-06 17:05 44.77683 9.96782 32688 ft 426 kts 158°
2026-05-06 17:06 44.74939 9.98360 33119 ft 426 kts 158°
2026-05-06 17:06 44.72190 9.99940 33545 ft 426 kts 158°
2026-05-06 17:06 44.69447 10.01516 33967 ft 426 kts 158°
2026-05-06 17:06 44.66698 10.03093 34391 ft 426 kts 158°
2026-05-06 17:07 44.63959 10.04662 34801 ft 425 kts 158°
2026-05-06 17:07 44.61217 10.06232 35236 ft 425 kts 158°
2026-05-06 17:07 44.58484 10.07796 35661 ft 424 kts 158°
2026-05-06 17:07 44.55760 10.09353 36079 ft 422 kts 158°
2026-05-06 17:08 44.54501 10.10072 36273 ft 422 kts 158°